H1 CPF 2 NER 2021 4 26 9 116 01 glonass141 H2 1908801 9141 44850 2021 4 26 0 0 0 2021 4 29 23 45 0 900 1 1 0 0 0 1 H9 10 0 59330 0.00000 0 -2226343.090 -20996587.443 -14283455.562 10 0 59330 900.00000 0 -2061078.944 -22597797.535 -11623604.446 10 0 59330 1800.00000 0 -2053208.551 -23867410.306 -8737619.588 10 0 59330 2700.00000 0 -2156864.209 -24768672.533 -5681715.410 10 0 59330 3600.00000 0 -2320447.713 -25276856.031 -2515366.579 10 0 59330 4500.00000 0 -2489058.468 -25380214.530 699857.404 10 0 59330 5400.00000 0 -2607060.924 -25080413.006 3901494.800 10 0 59330 6300.00000 0 -2620681.649 -24392412.838 7027407.392 10 0 59330 7200.00000 0 -2480525.611 -23343819.291 10016985.262 10 0 59330 8100.00000 0 -2143905.045 -21973720.339 12812317.151 10 0 59330 9000.00000 0 -1576882.745 -20331066.853 15359304.081 10 0 59330 9900.00000 0 -755944.025 -18472663.062 17608695.248 10 0 59330 10800.00000 0 330772.568 -16460851.844 19517027.306 10 0 59330 11700.00000 0 1682737.071 -14360991.499 21047450.207 10 0 59330 12600.00000 0 3286813.188 -12238828.734 22170425.100 10 0 59330 13500.00000 0 5117575.818 -10157876.191 22864282.378 10 0 59330 14400.00000 0 7138148.334 -8176902.164 23115630.458 10 0 59330 15300.00000 0 9301525.758 -6347635.219 22919608.483 10 0 59330 16200.00000 0 11552330.185 -4712777.308 22279978.783 10 0 59330 17100.00000 0 13828927.295 -3304406.225 21209057.477 10 0 59330 18000.00000 0 16065817.878 -2142832.461 19727484.265 10 0 59330 18900.00000 0 18196206.979 -1235956.901 17863835.078 10 0 59330 19800.00000 0 20154645.704 -579155.454 15654083.804 10 0 59330 20700.00000 0 21879637.144 -155695.220 13140922.120 10 0 59330 21600.00000 0 23316098.953 62335.124 10372948.912 10 0 59330 22500.00000 0 24417580.279 112619.335 7403743.391 10 0 59330 23400.00000 0 25148140.298 40790.568 4290838.554 10 0 59330 24300.00000 0 25483809.116 -101732.424 1094613.748 10 0 59330 25200.00000 0 25413568.714 -260158.871 -2122872.843 10 0 59330 26100.00000 0 24939811.358 -378887.370 -5299089.302 10 0 59330 27000.00000 0 24078254.695 -404106.306 -8372249.091 10 0 59330 27900.00000 0 22857315.549 -286322.313 -11282519.947 10 0 59330 28800.00000 0 21316967.406 17291.548 -13973198.075 10 0 59330 29700.00000 0 19507128.585 540829.064 -16391823.798 10 0 59330 30600.00000 0 17485648.119 1307955.029 -18491215.842 10 0 59330 31500.00000 0 15315973.717 2330654.095 -20230402.917 10 0 59330 32400.00000 0 13064599.761 3608479.338 -21575433.529 10 0 59330 33300.00000 0 10798402.680 5128334.223 -22500047.383 10 0 59330 34200.00000 0 8581975.989 6864798.928 -22986194.641 10 0 59330 35100.00000 0 6475077.087 8780988.714 -23024392.486 10 0 59330 36000.00000 0 4530293.122 10829909.322 -22613911.810 10 0 59330 36900.00000 0 2791023.834 12956253.079 -21762790.300 10 0 59330 37800.00000 0 1289865.606 15098560.601 -20487671.791 10 0 59330 38700.00000 0 47463.727 17191657.386 -18813475.244 10 0 59330 39600.00000 0 -928120.034 19169262.766 -16772900.217 10 0 59330 40500.00000 0 -1641499.606 20966661.384 -14405779.044 10 0 59330 41400.00000 0 -2109514.580 22523324.768 -11758288.959 10 0 59330 42300.00000 0 -2360259.058 23785372.622 -8882040.454 10 0 59330 43200.00000 0 -2431632.670 24707770.487 -5833060.504 10 0 59330 44100.00000 0 -2369477.194 25256171.726 -2670691.451 10 0 59330 45000.00000 0 -2225379.635 25408327.011 543571.959 10 0 59330 45900.00000 0 -2054236.470 25155003.054 3747283.916 10 0 59330 46800.00000 0 -1911683.525 24500373.166 6878263.175 10 0 59330 47700.00000 0 -1851501.106 23461864.639 9875798.874 10 0 59330 48600.00000 0 -1923104.565 22069470.750 12681823.062 10 0 59330 49500.00000 0 -2169226.341 20364557.479 15242027.527 10 0 59330 50400.00000 0 -2623886.920 18398215.949 17506903.912 10 0 59330 51300.00000 0 -3310739.686 16229230.018 19432688.082 10 0 59330 52200.00000 0 -4241858.685 13921743.939 20982191.838 10 0 59330 53100.00000 0 -5417019.722 11542726.898 22125507.342 10 0 59330 54000.00000 0 -6823504.729 9159338.959 22840572.216 10 0 59330 54900.00000 0 -8436437.826 6836306.492 23113585.777 10 0 59330 55800.00000 0 -10219639.654 4633414.429 22939269.458 10 0 59330 56700.00000 0 -12126965.502 2603217.548 22320967.110 10 0 59330 57600.00000 0 -14104073.008 789063.888 21270583.477 10 0 59330 58500.00000 0 -16090547.580 -776489.251 19808361.715 10 0 59330 59400.00000 0 -18022298.970 -2072802.296 17962503.538 10 0 59330 60300.00000 0 -19834131.076 -3091777.524 15768638.077 10 0 59330 61200.00000 0 -21462379.405 -3837954.787 13269148.329 10 0 59330 62100.00000 0 -22847507.389 -4328075.062 10512366.597 10 0 59330 63000.00000 0 -23936553.789 -4590129.952 7551652.885 10 0 59330 63900.00000 0 -24685328.849 -4661936.593 4444372.767 10 0 59330 64800.00000 0 -25060266.727 -4589297.523 1250793.434 10 0 59330 65700.00000 0 -25039855.455 -4423822.681 -1967081.413 10 0 59330 66600.00000 0 -24615582.936 -4220505.322 -5146715.369 10 0 59330 67500.00000 0 -23792357.519 -4035154.564 -8226258.302 10 0 59330 68400.00000 0 -22588383.639 -3921793.771 -11145756.279 10 0 59330 69300.00000 0 -21034496.066 -3930135.945 -13848327.987 10 0 59330 70200.00000 0 -19172979.268 -4103244.406 -16281283.710 10 0 59330 71100.00000 0 -17055920.315 -4475479.492 -18397164.033 10 0 59330 72000.00000 0 -14743163.805 -5070820.030 -20154676.826 10 0 59330 72900.00000 0 -12299954.233 -5901632.457 -21519513.319 10 0 59330 73800.00000 0 -9794364.600 -6967941.506 -22465026.564 10 0 59330 74700.00000 0 -7294619.257 -8257234.855 -22972758.326 10 0 59330 75600.00000 0 -4866423.347 -9744811.422 -23032803.779 10 0 59330 76500.00000 0 -2570410.878 -11394659.728 -22644006.587 10 0 59330 77400.00000 0 -459818.389 -13160829.993 -21813980.506 10 0 59330 78300.00000 0 1421518.625 -14989242.646 -20558957.171 10 0 59330 79200.00000 0 3040763.208 -16819857.182 -18903463.264 10 0 59330 80100.00000 0 4377202.300 -18589109.902 -16879833.751 10 0 59330 81000.00000 0 5422854.230 -20232517.638 -14527571.223 10 0 59330 81900.00000 0 6182534.627 -21687337.473 -11892564.499 10 0 59330 82800.00000 0 6673380.078 -22895170.119 -9026182.566 10 0 59330 83700.00000 0 6923851.991 -23804397.150 -5984262.446 10 0 59330 84600.00000 0 6972265.074 -24372349.480 -2826011.657 10 0 59330 85500.00000 0 6864904.881 -24567116.075 387152.290 10 0 59331 0.00000 0 6653816.044 -24368917.415 3592801.841 10 0 59331 900.00000 0 6394356.632 -23770986.436 6728715.178 10 0 59331 1800.00000 0 6142622.681 -22779922.021 9734082.660 10 0 59331 2700.00000 0 5952853.603 -21415499.626 12550681.730 10 0 59331 3600.00000 0 5874927.125 -19709949.862 15123996.898 10 0 59331 4500.00000 0 5952050.109 -17706734.986 17404264.020 10 0 59331 5400.00000 0 6218741.647 -15458875.546 19347419.722 10 0 59331 6300.00000 0 6699192.733 -13026896.963 20915938.953 10 0 59331 7200.00000 0 7406070.661 -10476481.345 22079545.908 10 0 59331 8100.00000 0 8339817.760 -7875921.293 22815786.156 10 0 59331 9000.00000 0 9488473.630 -5293480.119 23110450.332 10 0 59331 9900.00000 0 10828028.477 -2794766.404 22957842.275 10 0 59331 10800.00000 0 12323293.479 -440229.828 22360887.212 10 0 59331 11700.00000 0 13929253.009 1717119.877 21331078.112 10 0 59331 12600.00000 0 15592843.755 3633678.014 19888260.979 10 0 59331 13500.00000 0 17255088.293 5276814.148 18060262.504 10 0 59331 14400.00000 0 18853495.890 6625981.462 15882366.072 10 0 59331 15300.00000 0 20324631.918 7673320.870 13396644.831 10 0 59331 16200.00000 0 21606749.880 8423735.091 10651163.146 10 0 59331 17100.00000 0 22642376.809 8894429.644 7699060.252 10 0 59331 18000.00000 0 23380744.019 9113939.692 4597532.543 10 0 59331 18900.00000 0 23779960.994 9120683.253 1406733.087 10 0 59331 19800.00000 0 23808840.225 8961101.270 -1811391.040 10 0 59331 20700.00000 0 23448294.917 8687462.674 -4994301.203 10 0 59331 21600.00000 0 22692249.029 8355427.173 -8080085.994 10 0 59331 22500.00000 0 21548019.355 8021469.121 -11008672.135 10 0 59331 23400.00000 0 20036151.615 7740272.197 -13723003.042 10 0 59331 24300.00000 0 18189715.546 7562206.236 -16170161.117 10 0 59331 25200.00000 0 16053087.029 7530994.404 -18302410.838 10 0 59331 26100.00000 0 13680267.188 7681671.012 -20078141.149 10 0 59331 27000.00000 0 11132808.167 8038918.040 -21462687.818 10 0 59331 27900.00000 0 8477432.032 8615852.337 -22429018.942 10 0 59331 28800.00000 0 5783442.497 9413316.242 -22958269.477 10 0 59331 29700.00000 0 3120037.816 10419702.840 -23040114.002 10 0 59331 30600.00000 0 553637.381 11611324.239 -22672970.143 10 0 59331 31500.00000 0 -1854665.967 12953307.941 -21864028.617 10 0 59331 32400.00000 0 -4051421.531 14400983.842 -20629109.391 10 0 59331 33300.00000 0 -5992807.747 15901703.416 -18992346.984 10 0 59331 34200.00000 0 -7646208.087 17397014.106 -16985711.457 10 0 59331 35100.00000 0 -8991311.065 18825096.815 -14648374.923 10 0 59331 36000.00000 0 -10020689.790 20123363.206 -12025936.631 10 0 59331 36900.00000 0 -10739838.670 21231102.692 -9169522.536 10 0 59331 37800.00000 0 -11166668.008 22092067.040 -6134777.844 10 0 59331 38700.00000 0 -11330480.214 22656883.315 -2980773.090 10 0 59331 39600.00000 0 -11270473.228 22885193.362 231153.860 10 0 59331 40500.00000 0 -11033836.639 22747429.903 3438596.483 10 0 59331 41400.00000 0 -10673522.930 22226154.971 6579294.933 10 0 59331 42300.00000 0 -10245789.559 21316905.075 9592343.851 10 0 59331 43200.00000 0 -9807616.797 20028508.509 12419369.122 10 0 59331 44100.00000 0 -9414110.846 18382862.348 15005651.045 10 0 59331 45000.00000 0 -9116001.800 16414179.314 17301172.741 10 0 59331 45900.00000 0 -8957341.389 14167736.515 19261574.575 10 0 59331 46800.00000 0 -8973496.682 11698178.431 20848997.470 10 0 59331 47700.00000 0 -9189523.085 9067444.579 22032800.256 10 0 59331 48600.00000 0 -9618984.070 6342407.269 22790138.766 10 0 59331 49500.00000 0 -10263266.415 3592316.217 23106396.884 10 0 59331 50400.00000 0 -11111419.301 886154.490 22975462.338 10 0 59331 51300.00000 0 -12140524.131 -1709986.590 22399842.689 10 0 59331 52200.00000 0 -13316580.261 -4135406.860 21390619.514 10 0 59331 53100.00000 0 -14595870.666 -6337069.321 19967241.429 10 0 59331 54000.00000 0 -15926751.943 -8271552.334 18157159.257 10 0 59331 54900.00000 0 -17251795.426 -9906602.395 15995309.184 10 0 59331 55800.00000 0 -18510191.480 -11222223.859 13523452.519 10 0 59331 56700.00000 0 -19640317.769 -12211260.842 10789383.218 10 0 59331 57600.00000 0 -20582364.921 -12879447.162 7846016.899 10 0 59331 58500.00000 0 -21280910.008 -13244922.040 4750377.640 10 0 59331 59400.00000 0 -21687329.669 -13337231.501 1562501.062 10 0 59331 60300.00000 0 -21761950.809 -13195857.001 -1655725.813 10 0 59331 61200.00000 0 -21475847.098 -12868332.810 -4841765.606 10 0 59331 62100.00000 0 -20812203.963 -12408031.386 -7933649.096 10 0 59331 63000.00000 0 -19767192.536 -11871710.358 -10871187.063 10 0 59331 63900.00000 0 -18350313.605 -11316925.209 -13597150.925 10 0 59331 64800.00000 0 -16584194.918 -10799417.909 -16058398.276 10 0 59331 65700.00000 0 -14503848.386 -10370593.006 -18206920.271 10 0 59331 66600.00000 0 -12155416.758 -10075189.247 -20000789.315 10 0 59331 67500.00000 0 -9594461.078 -9949246.617 -21404987.623 10 0 59331 68400.00000 0 -6883859.823 -10018456.130 -22392099.672 10 0 59331 69300.00000 0 -4091407.261 -10296963.387 -22942854.331 10 0 59331 70200.00000 0 -1287211.311 -10786677.558 -23046505.695 10 0 59331 71100.00000 0 1459000.349 -11477115.733 -22701044.885 10 0 59331 72000.00000 0 4080553.162 -12345789.730 -21913238.589 10 0 59331 72900.00000 0 6516365.916 -13359119.205 -20698493.682 10 0 59331 73800.00000 0 8713252.329 -14473832.384 -19080550.735 10 0 59331 74700.00000 0 10627888.141 -15638794.881 -17091012.794 10 0 59331 75600.00000 0 12228362.303 -16797188.784 -14768719.149 10 0 59331 76500.00000 0 13495248.536 -17888949.283 -12158976.905 10 0 59331 77400.00000 0 14422153.949 -18853355.126 -9312666.232 10 0 59331 78300.00000 0 15015723.738 -19631662.807 -6285237.622 10 0 59331 79200.00000 0 15295104.097 -20169672.645 -3135621.647 10 0 59331 80100.00000 0 15290888.352 -20420118.065 74926.484 10 0 59331 81000.00000 0 15043593.147 -20344777.153 3284024.173 10 0 59331 81900.00000 0 14601731.201 -19916217.628 6429376.524 10 0 59331 82800.00000 0 14019563.756 -19119102.174 9449985.059 10 0 59331 83700.00000 0 13354628.962 -17950999.845 12287326.506 10 0 59331 84600.00000 0 12665151.277 -16422670.131 14886479.075 10 0 59331 85500.00000 0 12007441.297 -14557808.475 17197174.935 10 0 59332 0.00000 0 11433395.219 -12392264.407 19174759.580 10 0 59332 900.00000 0 10988198.645 -9972764.688 20781041.030 10 0 59332 1800.00000 0 10708329.251 -7355195.428 21985013.403 10 0 59332 2700.00000 0 10619942.691 -4602512.617 22763443.067 10 0 59332 3600.00000 0 10737706.399 -1782367.679 23101307.068 10 0 59332 4500.00000 0 11064130.690 1035455.454 22992076.575 10 0 59332 5400.00000 0 11589424.073 3781687.329 22437840.696 10 0 59332 6300.00000 0 12291879.069 6390196.437 21449268.532 10 0 59332 7200.00000 0 13138772.895 8800482.460 20045409.981 10 0 59332 8100.00000 0 14087746.297 10959937.826 18253338.442 10 0 59332 9000.00000 0 15088604.150 12825785.368 16107641.173 10 0 59332 9900.00000 0 16085463.807 14366612.630 13649765.768 10 0 59332 10800.00000 0 17019162.577 15563439.744 10927233.775 10 0 59332 11700.00000 0 17829824.445 16410276.580 7992735.092 10 0 59332 12600.00000 0 18459478.938 16914145.735 4903119.305 10 0 59332 13500.00000 0 18854622.239 17094570.026 1718302.351 10 0 59332 14400.00000 0 18968612.326 16982545.441 -1499891.043 10 0 59332 15300.00000 0 18763796.224 16619042.198 -4688926.944 10 0 59332 16200.00000 0 18213278.224 16053096.623 -7786780.422 10 0 59332 17100.00000 0 17302252.500 15339574.190 -10733148.254 10 0 59332 18000.00000 0 16028841.775 14536698.280 -13470631.629 10 0 59332 18900.00000 0 14404404.370 13703449.552 -15945864.894 10 0 59332 19800.00000 0 12453294.391 12896946.601 -18110567.256 10 0 59332 20700.00000 0 10212083.214 12169919.623 -19922495.794 10 0 59332 21600.00000 0 7728273.173 11568385.007 -21346280.250 10 0 59332 22500.00000 0 5058556.139 11129620.255 -22354122.460 10 0 59332 23400.00000 0 2266689.098 10880525.878 -22926346.084 10 0 59332 24300.00000 0 -578924.883 10836444.287 -23051785.475 10 0 59332 25200.00000 0 -3407849.411 11000486.213 -22728005.812 10 0 59332 26100.00000 0 -6150311.970 11363393.364 -21961350.078 10 0 59332 27000.00000 0 -8739872.921 11903943.112 -20766812.066 10 0 59332 27900.00000 0 -11115954.822 12589877.790 -19167738.067 10 0 59332 28800.00000 0 -13226126.528 13379318.724 -17195363.445 10 0 59332 29700.00000 0 -15028047.094 14222604.448 -14888193.647 10 0 59332 30600.00000 0 -16490989.040 15064474.415 -12291242.339 10 0 59332 31500.00000 0 -17596878.374 15846504.892 -9455142.377 10 0 59332 32400.00000 0 -18340809.486 16509693.020 -6435147.825 10 0 59332 33300.00000 0 -18731015.317 16997078.929 -3290047.416 10 0 59332 34200.00000 0 -18788296.280 17256294.380 -81011.703 10 0 59332 35100.00000 0 -18544934.361 17241929.847 3129602.787 10 0 59332 36000.00000 0 -18043140.410 16917619.958 6279468.376 10 0 59332 36900.00000 0 -17333102.071 16257759.506 9307495.878 10 0 59332 37800.00000 0 -16470716.253 15248778.130 12155015.403 10 0 59332 38700.00000 0 -15515102.799 13889920.553 14766905.685 10 0 59332 39600.00000 0 -14526004.549 12193500.196 17092650.616 10 0 59332 40500.00000 0 -13561183.130 10184615.948 19087303.526 10 0 59332 41400.00000 0 -12673919.274 7900344.030 20712341.940 10 0 59332 42300.00000 0 -11910721.612 5388438.559 21936397.659 10 0 59332 43200.00000 0 -11309338.703 2705594.209 22735849.693 10 0 59332 44100.00000 0 -10897156.211 -84657.939 23095269.978 10 0 59332 45000.00000 0 -10690045.067 -2914335.461 23007714.441 10 0 59332 45900.00000 0 -10691707.850 -5713573.584 22474854.581 10 0 59332 46800.00000 0 -10893550.155 -8413273.728 21506947.358 10 0 59332 47700.00000 0 -11275082.277 -10947723.857 20122643.729 10 0 59332 48600.00000 0 -11804834.823 -13257084.072 18348638.911 10 0 59332 49500.00000 0 -12441750.735 -15289636.011 16219169.952 10 0 59332 50400.00000 0 -13136996.530 -17003703.874 13775368.954 10 0 59332 51300.00000 0 -13836117.973 -18369168.013 11064482.869 10 0 59332 52200.00000 0 -14481450.793 -19368508.365 8138973.338 10 0 59332 53100.00000 0 -15014685.929 -19997333.999 5055512.650 10 0 59332 54000.00000 0 -15379481.725 -20264376.213 1873894.072 10 0 59332 54900.00000 0 -15524012.871 -20190944.819 -1344123.078 10 0 59332 55800.00000 0 -15403347.886 -19809869.669 -4536011.513 10 0 59332 56700.00000 0 -14981553.520 -19163971.366 -7639693.822 10 0 59332 57600.00000 0 -14233435.481 -18304125.073 -10594756.007 10 0 59332 58500.00000 0 -13145839.879 -17286998.932 -13343632.193 10 0 59332 59400.00000 0 -11718458.141 -16172562.663 -15832736.513 10 0 59332 60300.00000 0 -9964099.041 -15021471.973 -18013519.038 10 0 59332 61200.00000 0 -7908414.163 -13892439.942 -19843424.018 10 0 59332 62100.00000 0 -5589086.276 -12839707.247 -21286730.786 10 0 59332 63000.00000 0 -3054513.005 -11910718.911 -22315260.105 10 0 59332 63900.00000 0 -362039.820 -11144106.569 -22908931.428 10 0 59332 64800.00000 0 2424184.576 -10568062.028 -23056159.800 10 0 59332 65700.00000 0 5235641.207 -10199171.241 -22754084.329 10 0 59332 66600.00000 0 8002060.545 -10041758.017 -22008623.655 10 0 59332 67500.00000 0 10654119.559 -10087764.949 -20834357.407 10 0 59332 68400.00000 0 13126103.357 -10317176.085 -19254236.106 10 0 59332 69300.00000 0 15358420.155 -10698962.625 -17299125.572 10 0 59332 70200.00000 0 17299864.631 -11192510.625 -15007195.211 10 0 59332 71100.00000 0 18909535.528 -11749469.116 -12423162.719 10 0 59332 72000.00000 0 20158327.970 -12315939.150 -9597410.786 10 0 59332 72900.00000 0 21029939.280 -12834909.857 -6584993.923 10 0 59332 73800.00000 0 21521347.727 -13248837.253 -3444555.687 10 0 59332 74700.00000 0 21642746.024 -13502255.698 -237178.509 10 0 59332 75600.00000 0 21416934.594 -13544310.819 2974810.620 10 0 59332 76500.00000 0 20878202.290 -13331106.423 6129054.612 10 0 59332 77400.00000 0 20070743.794 -12827766.179 9164376.717 10 0 59332 78300.00000 0 19046682.065 -12010123.284 12021963.249 10 0 59332 79200.00000 0 17863780.391 -10865967.302 14646495.915 10 0 59332 80100.00000 0 16582941.059 -9395796.207 16987212.326 10 0 59332 81000.00000 0 15265595.905 -7613042.483 18998875.173 10 0 59332 81900.00000 0 13971097.860 -5543763.921 20642632.642 10 0 59332 82800.00000 0 12754221.960 -3225812.002 21886754.842 10 0 59332 83700.00000 0 11662879.147 -707511.936 22707233.610 10 0 59332 84600.00000 0 10736136.990 1954091.714 23088235.546 10 0 59332 85500.00000 0 10002628.541 4695352.270 23022400.672 10 0 59333 0.00000 0 9479414.387 7448414.991 22510981.848 10 0 59333 900.00000 0 9171344.585 10143790.820 21563822.409 10 0 59333 1800.00000 0 9070945.790 12713004.983 20199172.635 10 0 59333 2700.00000 0 9158839.450 15091212.685 18443347.495 10 0 59333 3600.00000 0 9404672.389 17219675.578 16330231.531 10 0 59333 4500.00000 0 9768522.536 19047996.978 13900638.877 10 0 59333 5400.00000 0 10202721.272 20536024.121 11201539.274 10 0 59333 6300.00000 0 10654016.960 21655338.591 8285163.406 10 0 59333 7200.00000 0 11065989.494 22390272.538 5208003.516 10 0 59333 8100.00000 0 11381614.709 22738407.797 2029727.473 10 0 59333 9000.00000 0 11545870.601 22710536.191 -1187973.484 10 0 59333 9900.00000 0 11508274.970 22330081.727 -4382581.219 10 0 59333 10800.00000 0 11225246.264 21632008.114 -7491968.146 10 0 59333 11700.00000 0 10662186.400 20661256.763 -10455611.524 10 0 59333 12600.00000 0 9795195.587 19470780.558 -13215780.138 10 0 59333 13500.00000 0 8612344.509 18119256.078 -15718669.317 10 0 59333 14400.00000 0 7114447.708 16668570.822 -17915461.107 10 0 59333 15300.00000 0 5315303.224 15181191.840 -19763287.767 10 0 59333 16200.00000 0 3241386.133 13717527.324 -21226078.852 10 0 59333 17100.00000 0 931006.892 12333393.117 -22275274.478 10 0 59333 18000.00000 0 -1567031.711 11077691.637 -22890390.146 10 0 59333 18900.00000 0 -4195223.844 9990401.613 -23059421.656 10 0 59333 19800.00000 0 -6889522.034 9100963.654 -22779081.884 10 0 59333 20700.00000 0 -9581780.512 8427129.768 -22054864.699 10 0 59333 21600.00000 0 -12202378.495 7974324.937 -20900934.816 10 0 59333 22500.00000 0 -14682913.654 7735547.036 -19339845.920 10 0 59333 23400.00000 0 -16958852.993 7691808.279 -17402092.912 10 0 59333 24300.00000 0 -18972030.250 7813098.243 -15125507.515 10 0 59333 25200.00000 0 -20672885.509 8059826.304 -12554509.616 10 0 59333 26100.00000 0 -22022353.625 8384680.849 -9739229.794 10 0 59333 27000.00000 0 -22993323.183 8734825.024 -6734520.990 10 0 59333 27900.00000 0 -23571605.980 9054334.537 -3598879.564 10 0 59333 28800.00000 0 -23756377.881 9286773.006 -393297.792 10 0 59333 29700.00000 0 -23560074.381 9377794.816 2819928.911 10 0 59333 30600.00000 0 -23007747.268 9277664.597 5978416.125 10 0 59333 31500.00000 0 -22135911.417 8943586.499 9020901.642 10 0 59333 32400.00000 0 -20990932.055 8341744.817 11888430.142 10 0 59333 33300.00000 0 -19627021.721 7448970.134 14525488.481 10 0 59333 34200.00000 0 -18103932.068 6253961.236 16881070.145 10 0 59333 35100.00000 0 -16484437.814 4758011.828 18909649.261 10 0 59333 36000.00000 0 -14831718.048 2975211.832 20572046.591 10 0 59333 36900.00000 0 -13206743.878 932114.870 21836172.235 10 0 59333 37800.00000 0 -11665780.362 -1333114.546 22677632.249 10 0 59333 38700.00000 0 -10258105.540 -3772039.461 23080188.939 10 0 59333 39600.00000 0 -9024040.065 -6327720.013 23036067.106 10 0 59333 40500.00000 0 -7993367.959 -8936842.259 22546101.196 10 0 59333 41400.00000 0 -7184212.852 -11532119.872 21619720.872 10 0 59333 42300.00000 0 -6602415.522 -14044871.071 20274775.139 10 0 59333 43200.00000 0 -6241437.988 -16407665.970 18537197.787 10 0 59333 44100.00000 0 -6082797.963 -18556936.345 16440519.513 10 0 59333 45000.00000 0 -6097015.708 -20435440.817 14025234.792 10 0 59333 45900.00000 0 -6245034.133 -21994484.009 11338034.145 10 0 59333 46800.00000 0 -6480053.279 -23195797.738 8430915.036 10 0 59333 47700.00000 0 -6749702.786 -24013005.648 5360187.212 10 0 59333 48600.00000 0 -6998461.446 -24432609.619 2185390.546 10 0 59333 49500.00000 0 -7170222.049 -24454455.719 -1031854.484 10 0 59333 50400.00000 0 -7210893.052 -24091659.066 -4229041.661 10 0 59333 51300.00000 0 -7070926.429 -23369989.546 -7343996.029 10 0 59333 52200.00000 0 -6707663.592 -22326743.152 -10316088.941 10 0 59333 53100.00000 0 -6087398.527 -21009145.528 -13087426.664 10 0 59333 54000.00000 0 -5187068.856 -19472354.356 -15603988.477 10 0 59333 54900.00000 0 -3995501.074 -17777144.481 -17816691.004 10 0 59333 55800.00000 0 -2514155.054 -15987373.321 -19682356.881 10 0 59333 56700.00000 0 -757334.103 -14167333.664 -21164567.901 10 0 59333 57600.00000 0 1248150.408 -12379105.751 -22234385.138 10 0 59333 58500.00000 0 3463847.497 -10680020.675 -22870921.267 10 0 59333 59400.00000 0 5841033.051 -9120342.298 -23061753.454 10 0 59333 60300.00000 0 8322518.078 -7741265.438 -22803168.467 10 0 59333 61200.00000 0 10844823.467 -6573314.609 -22100235.046 10 0 59333 62100.00000 0 13340630.467 -5635210.299 -20966702.205 10 0 59333 63000.00000 0 15741404.326 -4933249.771 -19424725.589 10 0 59333 63900.00000 0 17980081.030 -4461227.398 -17504427.585 10 0 59333 64800.00000 0 19993704.476 -4200896.414 -15243300.248 10 0 59333 65700.00000 0 21725903.583 -4122950.897 -12685463.278 10 0 59333 66600.00000 0 23129105.538 -4188484.629 -9880792.374 10 0 59333 67500.00000 0 24166392.835 -4350863.254 -6883935.799 10 0 59333 68400.00000 0 24812926.961 -4557928.634 -3753239.317 10 0 59333 69300.00000 0 25056880.026 -4754440.466 -549601.480 10 0 59333 70200.00000 0 24899836.711 -4884650.394 2664717.503 10 0 59333 71100.00000 0 24356651.322 -4894898.581 5827309.410 10 0 59333 72000.00000 0 23454767.738 -4736122.316 8876829.922 10 0 59333 72900.00000 0 22233032.585 -4366170.296 11754185.093 10 0 59333 73800.00000 0 20740052.941 -3751824.976 14403669.552 10 0 59333 74700.00000 0 19032168.623 -2870448.057 16774034.845 10 0 59333 75600.00000 0 17171124.637 -1711180.291 18819468.245 10 0 59333 76500.00000 0 15221541.252 -275645.563 20500464.350 10 0 59333 77400.00000 0 13248286.935 1421870.021 21784574.055 10 0 59333 78300.00000 0 11313862.767 3354771.697 22647018.001 10 0 59333 79200.00000 0 9475905.883 5485028.067 23071154.121 10 0 59333 80100.00000 0 7784914.262 7764526.205 23048791.473 10 0 59333 81000.00000 0 6282285.755 10136854.898 22580345.152 10 0 59333 81900.00000 0 4998751.201 12539443.739 21674829.724 10 0 59333 82800.00000 0 3953265.458 14905971.100 20349691.149 10 0 59333 83700.00000 0 3152401.408 17168943.080 18630479.877 10 0 59333 84600.00000 0 2590271.512 19262338.204 16550370.294 10 0 59333 85500.00000 0 2248980.028 21124209.459 14149534.501 99